Time,TemperatureF,DewpointF,PressureIn,WindDirection,WindDirectionDegrees,WindSpeedMPH,WindSpeedGustMPH,Humidity,HourlyPrecipIn,Conditions,Clouds,dailyrainin,SoftwareType,DateUTC
2013-03-13 00:02:00,26.0,21.0,30.33,NNW,348,0.0,0.0,82,0.00,,,0.00,,2013-03-13 05:02:00,
2013-03-13 00:12:00,26.0,21.0,30.33,NNW,348,0.0,0.0,82,0.00,,,0.00,,2013-03-13 05:12:00,
2013-03-13 00:22:00,26.0,22.0,30.33,NNW,348,0.0,0.0,83,0.00,,,0.00,,2013-03-13 05:22:00,
2013-03-13 00:32:00,26.0,22.0,30.34,NNW,348,0.0,0.0,83,0.00,,,0.00,,2013-03-13 05:32:00,
2013-03-13 00:42:00,26.0,22.0,30.34,NNW,348,0.0,0.0,83,0.00,,,0.00,,2013-03-13 05:42:00,
2013-03-13 00:52:00,26.0,21.0,30.34,NNW,348,0.0,0.0,81,0.00,,,0.00,,2013-03-13 05:52:00,
2013-03-13 01:02:00,25.0,20.0,30.34,NNW,348,0.0,0.0,82,0.00,,,0.00,,2013-03-13 06:02:00,
2013-03-13 01:12:00,25.0,20.0,30.34,NNW,348,0.0,0.0,82,0.00,,,0.00,,2013-03-13 06:12:00,
2013-03-13 01:23:00,25.0,20.0,30.34,NNW,348,0.0,0.0,82,0.00,,,0.00,,2013-03-13 06:23:00,
2013-03-13 01:32:00,25.0,20.0,30.33,NNW,348,0.0,0.0,80,0.00,,,0.00,,2013-03-13 06:32:00,
2013-03-13 01:42:00,25.0,20.0,30.33,NNW,348,0.0,0.0,80,0.00,,,0.00,,2013-03-13 06:42:00,
2013-03-13 01:52:00,25.0,19.0,30.33,NNW,348,0.0,0.0,78,0.00,,,0.00,,2013-03-13 06:52:00,
2013-03-13 02:02:00,25.0,19.0,30.33,NNW,348,0.0,0.0,76,0.00,,,0.00,,2013-03-13 07:02:00,
2013-03-13 02:12:00,25.0,19.0,30.33,NNW,348,0.0,0.0,76,0.00,,,0.00,,2013-03-13 07:12:00,
2013-03-13 02:22:00,25.0,20.0,30.33,NNW,348,0.0,0.0,80,0.00,,,0.00,,2013-03-13 07:22:00,
2013-03-13 02:32:00,24.0,19.0,30.34,NNW,348,0.0,0.0,80,0.00,,,0.00,,2013-03-13 07:32:00,
2013-03-13 02:42:00,24.0,19.0,30.34,NNW,348,0.0,0.0,80,0.00,,,0.00,,2013-03-13 07:42:00,
2013-03-13 02:52:00,24.0,19.0,30.34,NNW,348,0.0,0.0,82,0.00,,,0.00,,2013-03-13 07:52:00,
2013-03-13 03:03:00,24.0,20.0,30.35,NNW,348,0.0,0.0,83,0.00,,,0.00,,2013-03-13 08:03:00,
2013-03-13 03:12:00,24.0,20.0,30.35,NNW,348,0.0,0.0,83,0.00,,,0.00,,2013-03-13 08:12:00,
2013-03-13 03:22:00,23.0,19.0,30.35,NNW,348,0.0,0.0,84,0.00,,,0.00,,2013-03-13 08:22:00,
2013-03-13 03:32:00,24.0,20.0,30.35,NNW,348,0.0,0.0,84,0.00,,,0.00,,2013-03-13 08:32:00,
2013-03-13 03:43:00,24.0,20.0,30.35,NNW,348,0.0,0.0,84,0.00,,,0.00,,2013-03-13 08:43:00,
2013-03-13 03:52:00,23.0,19.0,30.35,NNW,348,0.0,0.0,83,0.00,,,0.00,,2013-03-13 08:52:00,
2013-03-13 04:02:00,23.0,19.0,30.35,NNW,348,0.0,0.0,85,0.00,,,0.00,,2013-03-13 09:02:00,
2013-03-13 04:12:00,23.0,19.0,30.35,NNW,348,0.0,0.0,85,0.00,,,0.00,,2013-03-13 09:12:00,
2013-03-13 04:22:00,23.0,19.0,30.35,NNW,348,0.0,0.0,85,0.00,,,0.00,,2013-03-13 09:22:00,
2013-03-13 04:32:00,22.0,18.0,30.35,NNW,348,0.0,0.0,85,0.00,,,0.00,,2013-03-13 09:32:00,
2013-03-13 04:42:00,22.0,18.0,30.35,NNW,348,0.0,0.0,85,0.00,,,0.00,,2013-03-13 09:42:00,
2013-03-13 04:52:00,22.0,18.0,30.34,NNW,348,0.0,0.0,86,0.00,,,0.00,,2013-03-13 09:52:00,
2013-03-13 05:02:00,22.0,18.0,30.34,NNW,348,0.0,0.0,86,0.00,,,0.00,,2013-03-13 10:02:00,
2013-03-13 05:12:00,22.0,18.0,30.34,NNW,348,0.0,0.0,86,0.00,,,0.00,,2013-03-13 10:12:00,
2013-03-13 05:22:00,22.0,18.0,30.36,NNW,348,0.0,0.0,86,0.00,,,0.00,,2013-03-13 10:22:00,
2013-03-13 05:32:00,22.0,18.0,30.36,NNW,348,0.0,0.0,86,0.00,,,0.00,,2013-03-13 10:32:00,
2013-03-13 05:42:00,22.0,18.0,30.36,NNW,348,0.0,0.0,86,0.00,,,0.00,,2013-03-13 10:42:00,
2013-03-13 05:52:00,21.0,18.0,30.36,NNW,348,0.0,0.0,87,0.00,,,0.00,,2013-03-13 10:52:00,
2013-03-13 06:02:00,21.0,18.0,30.37,NNW,348,0.0,0.0,87,0.00,,,0.00,,2013-03-13 11:02:00,
2013-03-13 06:12:00,21.0,18.0,30.37,NNW,348,0.0,0.0,87,0.00,,,0.00,,2013-03-13 11:12:00,
2013-03-13 06:22:00,22.0,18.0,30.37,NNW,348,0.0,0.0,86,0.00,,,0.00,,2013-03-13 11:22:00,
2013-03-13 06:32:00,21.0,18.0,30.37,NNW,348,0.0,0.0,87,0.00,,,0.00,,2013-03-13 11:32:00,
2013-03-13 06:42:00,21.0,18.0,30.37,NNW,348,0.0,0.0,87,0.00,,,0.00,,2013-03-13 11:42:00,
2013-03-13 06:52:00,21.0,18.0,30.38,NNW,348,0.0,0.0,87,0.00,,,0.00,,2013-03-13 11:52:00,
2013-03-13 07:02:00,21.0,18.0,30.38,NNW,348,0.0,0.0,87,0.00,,,0.00,,2013-03-13 12:02:00,
2013-03-13 07:12:00,21.0,18.0,30.38,NNW,348,0.0,0.0,87,0.00,,,0.00,,2013-03-13 12:12:00,
2013-03-13 07:22:00,21.0,17.0,30.38,NNW,348,0.0,0.0,86,0.00,,,0.00,,2013-03-13 12:22:00,
2013-03-13 07:32:00,22.0,19.0,30.38,NNW,348,0.0,0.0,87,0.00,,,0.00,,2013-03-13 12:32:00,
2013-03-13 07:42:00,22.0,19.0,30.38,NNW,348,0.0,0.0,87,0.00,,,0.00,,2013-03-13 12:42:00,
2013-03-13 07:52:00,22.0,19.0,30.38,NNW,348,0.0,0.0,87,0.00,,,0.00,,2013-03-13 12:52:00,
2013-03-13 08:02:00,22.0,19.0,30.38,NNW,348,0.0,0.0,87,0.00,,,0.00,,2013-03-13 13:02:00,
2013-03-13 08:12:00,22.0,19.0,30.38,NNW,348,0.0,0.0,87,0.00,,,0.00,,2013-03-13 13:12:00,
2013-03-13 08:22:00,21.0,18.0,30.39,NNW,348,0.0,0.0,87,0.00,,,0.00,,2013-03-13 13:22:00,
2013-03-13 08:33:00,22.0,19.0,30.39,NNW,348,0.0,0.0,87,0.00,,,0.00,,2013-03-13 13:33:00,
2013-03-13 08:52:00,23.0,20.0,30.40,NNW,348,0.0,0.0,88,0.00,,,0.00,,2013-03-13 13:52:00,
2013-03-13 09:02:00,25.0,22.0,30.40,NNW,348,0.0,0.0,88,0.00,,,0.00,,2013-03-13 14:02:00,
2013-03-13 09:12:00,25.0,22.0,30.40,NNW,348,0.0,0.0,88,0.00,,,0.00,,2013-03-13 14:12:00,
2013-03-13 09:22:00,26.0,23.0,30.40,NNW,348,0.0,0.0,87,0.00,,,0.00,,2013-03-13 14:22:00,
2013-03-13 09:33:00,27.0,23.0,30.40,NNW,348,0.0,0.0,84,0.00,,,0.00,,2013-03-13 14:33:00,
2013-03-13 09:42:00,27.0,23.0,30.40,NNW,348,0.0,0.0,84,0.00,,,0.00,,2013-03-13 14:42:00,
2013-03-13 09:52:00,29.0,25.0,30.40,NNW,348,0.0,0.0,83,0.00,,,0.00,,2013-03-13 14:52:00,
2013-03-13 10:03:00,30.0,25.0,30.41,NNW,348,0.0,0.0,83,0.00,,,0.00,,2013-03-13 15:03:00,
2013-03-13 10:12:00,30.0,25.0,30.41,NNW,348,0.0,0.0,83,0.00,,,0.00,,2013-03-13 15:12:00,
2013-03-13 10:22:00,32.0,27.0,30.41,NNW,348,0.0,0.0,82,0.00,,,0.00,,2013-03-13 15:22:00,
2013-03-13 10:32:00,34.0,28.0,30.42,SSE,166,0.0,3.0,78,0.00,,,0.00,,2013-03-13 15:32:00,
2013-03-13 10:42:00,34.0,28.0,30.42,SSE,166,0.0,3.0,78,0.00,,,0.00,,2013-03-13 15:42:00,
2013-03-13 10:52:00,36.0,29.0,30.42,SSE,149,0.0,5.0,74,0.00,,,0.00,,2013-03-13 15:52:00,
2013-03-13 11:03:00,38.0,28.0,30.42,SSE,160,3.0,6.0,68,0.00,,,0.00,,2013-03-13 16:03:00,
2013-03-13 11:12:00,38.0,28.0,30.42,SSE,160,3.0,6.0,68,0.00,,,0.00,,2013-03-13 16:12:00,
2013-03-13 11:22:00,40.0,28.0,30.42,SSE,153,5.0,9.0,63,0.00,,,0.00,,2013-03-13 16:22:00,
2013-03-13 11:32:00,41.0,28.0,30.42,SSE,163,7.0,9.0,59,0.00,,,0.00,,2013-03-13 16:32:00,
2013-03-13 11:42:00,41.0,28.0,30.42,SSE,163,7.0,9.0,59,0.00,,,0.00,,2013-03-13 16:42:00,
2013-03-13 11:52:00,42.0,27.0,30.41,SSE,164,9.0,14.0,54,0.00,,,0.00,,2013-03-13 16:52:00,
2013-03-13 12:02:00,43.0,27.0,30.40,SSE,162,9.0,14.0,53,0.00,,,0.00,,2013-03-13 17:02:00,
2013-03-13 12:12:00,43.0,27.0,30.40,SSE,162,9.0,14.0,53,0.00,,,0.00,,2013-03-13 17:12:00,
2013-03-13 12:22:00,44.0,28.0,30.40,SSE,150,7.0,13.0,52,0.00,,,0.00,,2013-03-13 17:22:00,
2013-03-13 12:32:00,45.0,27.0,30.39,South,175,10.0,13.0,48,0.00,,,0.00,,2013-03-13 17:32:00,
2013-03-13 12:42:00,45.0,27.0,30.39,South,175,10.0,13.0,48,0.00,,,0.00,,2013-03-13 17:42:00,
2013-03-13 12:53:00,45.0,25.0,30.38,SSE,164,9.0,15.0,45,0.00,,,0.00,,2013-03-13 17:53:00,
2013-03-13 13:02:00,47.0,26.0,30.38,SSE,153,7.0,14.0,44,0.00,,,0.00,,2013-03-13 18:02:00,
2013-03-13 13:12:00,47.0,26.0,30.38,SSE,153,7.0,14.0,44,0.00,,,0.00,,2013-03-13 18:12:00,
2013-03-13 13:22:00,47.0,27.0,30.38,South,173,9.0,13.0,46,0.00,,,0.00,,2013-03-13 18:22:00,
2013-03-13 13:33:00,48.0,27.0,30.37,South,181,5.0,15.0,44,0.00,,,0.00,,2013-03-13 18:33:00,
2013-03-13 13:42:00,48.0,27.0,30.37,South,181,5.0,15.0,44,0.00,,,0.00,,2013-03-13 18:42:00,
2013-03-13 13:52:00,48.0,27.0,30.37,SSE,156,11.0,14.0,44,0.00,,,0.00,,2013-03-13 18:52:00,
2013-03-13 14:02:00,49.0,27.0,30.35,SE,142,9.0,17.0,42,0.00,,,0.00,,2013-03-13 19:02:00,
2013-03-13 14:12:00,49.0,27.0,30.35,SE,142,9.0,17.0,42,0.00,,,0.00,,2013-03-13 19:12:00,
2013-03-13 14:22:00,49.0,29.0,30.34,South,180,12.0,19.0,46,0.00,,,0.00,,2013-03-13 19:22:00,
2013-03-13 14:32:00,49.0,29.0,30.33,SSE,166,10.0,18.0,46,0.00,,,0.00,,2013-03-13 19:32:00,
2013-03-13 14:43:00,49.0,29.0,30.33,SSE,166,10.0,18.0,46,0.00,,,0.00,,2013-03-13 19:43:00,
2013-03-13 14:52:00,51.0,31.0,30.32,South,186,12.0,20.0,47,0.00,,,0.00,,2013-03-13 19:52:00,
2013-03-13 15:02:00,51.0,32.0,30.31,South,184,12.0,18.0,48,0.00,,,0.00,,2013-03-13 20:02:00,
2013-03-13 15:12:00,51.0,32.0,30.31,South,184,12.0,18.0,48,0.00,,,0.00,,2013-03-13 20:12:00,
2013-03-13 15:22:00,52.0,30.0,30.31,SSE,150,10.0,20.0,43,0.00,,,0.00,,2013-03-13 20:22:00,
2013-03-13 15:32:00,52.0,30.0,30.30,South,175,7.0,20.0,43,0.00,,,0.00,,2013-03-13 20:32:00,
2013-03-13 15:42:00,52.0,30.0,30.30,South,175,7.0,20.0,43,0.00,,,0.00,,2013-03-13 20:42:00,
2013-03-13 15:52:00,53.0,29.0,30.29,South,182,10.0,16.0,40,0.00,,,0.00,,2013-03-13 20:52:00,
2013-03-13 16:02:00,54.0,32.0,30.29,SSW,198,8.0,14.0,43,0.00,,,0.00,,2013-03-13 21:02:00,
2013-03-13 16:12:00,54.0,32.0,30.29,SSW,198,8.0,14.0,43,0.00,,,0.00,,2013-03-13 21:12:00,
2013-03-13 16:22:00,54.0,31.0,30.29,SW,222,7.0,16.0,41,0.00,,,0.00,,2013-03-13 21:22:00,
2013-03-13 16:33:00,54.0,32.0,30.28,SSW,201,2.0,15.0,43,0.00,,,0.00,,2013-03-13 21:33:00,
2013-03-13 16:42:00,54.0,32.0,30.28,SSW,201,2.0,15.0,43,0.00,,,0.00,,2013-03-13 21:42:00,
2013-03-13 16:52:00,55.0,33.0,30.28,SW,225,3.0,15.0,43,0.00,,,0.00,,2013-03-13 21:52:00,
2013-03-13 17:02:00,56.0,33.0,30.27,SSE,161,10.0,16.0,41,0.00,,,0.00,,2013-03-13 22:02:00,
2013-03-13 17:12:00,56.0,33.0,30.27,SSE,161,10.0,16.0,41,0.00,,,0.00,,2013-03-13 22:12:00,
2013-03-13 17:22:00,55.0,33.0,30.27,SSE,164,11.0,19.0,44,0.00,,,0.00,,2013-03-13 22:22:00,
2013-03-13 17:32:00,56.0,34.0,30.27,SSE,164,7.0,17.0,44,0.00,,,0.00,,2013-03-13 22:32:00,
2013-03-13 17:42:00,56.0,34.0,30.27,SSE,164,7.0,17.0,44,0.00,,,0.00,,2013-03-13 22:42:00,
2013-03-13 17:52:00,55.0,33.0,30.25,South,178,8.0,16.0,43,0.00,,,0.00,,2013-03-13 22:52:00,
2013-03-13 18:02:00,55.0,33.0,30.25,South,180,11.0,18.0,43,0.00,,,0.00,,2013-03-13 23:02:00,
2013-03-13 18:12:00,55.0,33.0,30.25,South,180,11.0,18.0,43,0.00,,,0.00,,2013-03-13 23:12:00,
2013-03-13 18:22:00,55.0,33.0,30.24,SSE,168,12.0,19.0,43,0.00,,,0.00,,2013-03-13 23:22:00,
2013-03-13 18:32:00,55.0,33.0,30.23,South,188,13.0,22.0,44,0.00,,,0.00,,2013-03-13 23:32:00,
2013-03-13 18:42:00,55.0,33.0,30.23,South,188,13.0,22.0,44,0.00,,,0.00,,2013-03-13 23:42:00,
2013-03-13 18:52:00,55.0,35.0,30.23,South,178,9.0,18.0,46,0.00,,,0.00,,2013-03-13 23:52:00,
2013-03-13 19:02:00,54.0,35.0,30.22,South,180,10.0,16.0,48,0.00,,,0.00,,2013-03-14 00:02:00,
2013-03-13 19:12:00,54.0,35.0,30.22,South,180,10.0,16.0,48,0.00,,,0.00,,2013-03-14 00:12:00,
2013-03-13 19:22:00,53.0,35.0,30.22,SSE,166,11.0,15.0,50,0.00,,,0.00,,2013-03-14 00:22:00,
2013-03-13 19:32:00,52.0,35.0,30.22,South,186,10.0,15.0,52,0.00,,,0.00,,2013-03-14 00:32:00,
2013-03-13 19:42:00,52.0,35.0,30.22,South,186,10.0,15.0,52,0.00,,,0.00,,2013-03-14 00:42:00,
2013-03-13 19:52:00,51.0,35.0,30.22,SSE,168,9.0,13.0,54,0.00,,,0.00,,2013-03-14 00:52:00,
2013-03-13 20:02:00,49.0,34.0,30.21,SSE,160,7.0,12.0,56,0.00,,,0.00,,2013-03-14 01:02:00,
2013-03-13 20:12:00,49.0,34.0,30.21,SSE,160,7.0,12.0,56,0.00,,,0.00,,2013-03-14 01:12:00,
2013-03-13 20:22:00,48.0,34.0,30.21,SSE,163,5.0,11.0,59,0.00,,,0.00,,2013-03-14 01:22:00,
2013-03-13 20:32:00,46.0,34.0,30.20,SSE,159,5.0,10.0,62,0.00,,,0.00,,2013-03-14 01:32:00,
2013-03-13 20:42:00,46.0,34.0,30.20,SSE,159,5.0,10.0,62,0.00,,,0.00,,2013-03-14 01:42:00,
2013-03-13 20:52:00,45.0,33.0,30.20,SSE,158,5.0,7.0,63,0.00,,,0.00,,2013-03-14 01:52:00,
2013-03-13 21:02:00,45.0,33.0,30.20,SSE,163,6.0,11.0,63,0.00,,,0.00,,2013-03-14 02:02:00,
2013-03-13 21:12:00,45.0,33.0,30.20,SSE,163,6.0,11.0,63,0.00,,,0.00,,2013-03-14 02:12:00,
2013-03-13 21:22:00,44.0,33.0,30.20,South,170,5.0,8.0,64,0.00,,,0.00,,2013-03-14 02:22:00,
2013-03-13 21:32:00,43.0,32.0,30.20,SSE,163,4.0,7.0,65,0.00,,,0.00,,2013-03-14 02:32:00,
2013-03-13 21:42:00,43.0,32.0,30.20,SSE,163,4.0,7.0,65,0.00,,,0.00,,2013-03-14 02:42:00,
2013-03-13 21:51:00,43.0,32.0,30.20,SSE,163,4.0,7.0,65,0.00,,,0.00,,2013-03-14 02:51:00,
2013-03-13 22:02:00,43.0,33.0,30.20,SSE,163,5.0,6.0,67,0.00,,,0.00,,2013-03-14 03:02:00,
2013-03-13 22:12:00,43.0,33.0,30.20,SSE,163,5.0,6.0,67,0.00,,,0.00,,2013-03-14 03:12:00,
2013-03-13 22:23:00,43.0,32.0,30.20,SSE,161,6.0,9.0,66,0.00,,,0.00,,2013-03-14 03:23:00,
2013-03-13 22:32:00,44.0,32.0,30.19,SSE,157,7.0,14.0,62,0.00,,,0.00,,2013-03-14 03:32:00,
2013-03-13 22:42:00,44.0,32.0,30.19,SSE,157,7.0,14.0,62,0.00,,,0.00,,2013-03-14 03:42:00,
2013-03-13 22:52:00,45.0,32.0,30.19,South,178,11.0,14.0,60,0.00,,,0.00,,2013-03-14 03:52:00,
2013-03-13 23:12:00,46.0,32.0,30.19,South,171,12.0,15.0,57,0.00,,,0.00,,2013-03-14 04:12:00,
2013-03-13 23:22:00,46.0,31.0,30.18,SSE,160,6.0,16.0,56,0.00,,,0.00,,2013-03-14 04:22:00,
2013-03-13 23:32:00,46.0,31.0,30.18,South,183,8.0,14.0,55,0.00,,,0.00,,2013-03-14 04:32:00,
2013-03-13 23:42:00,46.0,31.0,30.18,South,183,8.0,14.0,55,0.00,,,0.00,,2013-03-14 04:42:00,
2013-03-13 23:52:00,46.0,31.0,30.18,SSW,206,8.0,15.0,55,0.00,,,0.00,,2013-03-14 04:52:00,